Regional Weather Roundup
Issued by NWS

Home | Current Version | Previous Version | Graphics & Text | Print | Product List | Glossary On
Versions: 1 2 3 4 5 6 7 8 9 10 11 12 13 14 15 16 17 18 19 20 21 22 23 24 25 26 27 28 29 30 31 32 33 34 35 36 37 38 39 40 41 42 43 44 45 46 47 48 49 50
000
ASUS43 KMKX 022200
RWRWI

WISCONSIN REGIONAL WEATHER ROUNDUP
NATIONAL WEATHER SERVICE MILWAUKEE/SULLIVAN WI
500 PM CDT MON MAY 02 2016

NOTE: "FAIR" INDICATES FEW OR NO CLOUDS BELOW 12,000 FEET WITH NO
SIGNIFICANT WEATHER AND/OR OBSTRUCTIONS TO VISIBILITY.

WIZ001-002-006>008-014>016-023>028-022300-
NORTHWEST WISCONSIN

CITY           SKY/WX    TMP DP  RH WIND       PRES   REMARKS
SUPERIOR ARPT  SUNNY     63  38  38 E7        30.00F
ASHLAND        SUNNY     65  34  31 NE7       30.02F
HAYWARD        MOSUNNY   65  28  24 CALM      29.99F
SIREN          MOSUNNY   66  28  23 SE5       30.00F
CUMBERLAND     PTSUNNY   63  32  31 SE8       30.00F
RICE LAKE      MOSUNNY   65  28  25 W3        30.02F
CHETEK         MOSUNNY   62  37  39 SW3       30.01F
LADYSMITH      SUNNY     62  35  36 S6        30.03F
EAU CLAIRE     NOT AVBL
MENOMONIE      MOSUNNY   70  35  27 SW8       30.01F
NEW RICHMOND   SUNNY     65  30  27 CALM      30.02F
OSCEOLA        SUNNY     66  32  28 W6        30.03F
$$

WIZ003>005-009-010-017-018-022300-
NORTH CENTRAL WISCONSIN

CITY           SKY/WX    TMP DP  RH WIND       PRES   REMARKS
MANITOWISH WTR MOSUNNY   58  31  35 CALM      30.00F
ARBOR VITAE    SUNNY     62  30  29 W3        30.00F
WOODRUFF       SUNNY     62  30  29 W3        30.00F
RHINELANDER    CLOUDY    61  29  29 VRB6      30.01F
EAGLE RIVER    SUNNY     59  25  26 NW5       30.00F
LAND O LAKES   PTSUNNY   62  25  24 CALM      30.01F
PHILLIPS       CLOUDY    61  32  33 S6        30.00F
TOMAHAWK       CLOUDY    62  30  29 E5        30.01F
MEDFORD        CLOUDY    62  36  38 NW7       30.01F
MERRILL        PTSUNNY   61  32  33 CALM      30.02F
$$

WIZ029-030-035-036-043>047-022300-
CENTRAL WISCONSIN

CITY           SKY/WX    TMP DP  RH WIND       PRES   REMARKS
WAUSAU         PTSUNNY   64  32  30 CALM      29.99F
MOSINEE        NOT AVBL
MARSHFIELD     CLOUDY    65  31  28 VRB3      30.01F
STEVENS POINT  CLOUDY    61  31  32 W5        30.01F
WAUPACA        SUNNY     64  28  24 CALM      30.01F
WAUTOMA        CLOUDY    64  30  27 W6        30.00F
WISC RAPIDS    PTSUNNY   66  28  24 NW9       30.02F
CAMP DOUGLAS   NOT AVBL
$$

WIZ011>013-019>022-031-037>040-048>050-022300-
NORTHEAST WISCONSIN

CITY           SKY/WX    TMP DP  RH WIND       PRES   REMARKS
ANTIGO         CLOUDY    59  32  35 CALM      30.01F
SHAWANO        PTSUNNY   67  29  23 S3        30.00F
OCONTO         SUNNY     61  30  30 S9        30.01F
STURGEON BAY   SUNNY     57  34  41 E9        30.05F
GREEN BAY      SUNNY     63  30  28 CALM      30.01F
MANITOWOC      NOT AVBL
APPLETON       MOSUNNY   63  27  25 CALM      30.00F
CLINTONVILLE   CLOUDY    63  28  27 CALM      30.00F
OSHKOSH        SUNNY     63  32  31 SE5       30.01F
$$

WIZ032>034-041-042-053>061-022300-
SOUTHWEST WISCONSIN

CITY           SKY/WX    TMP DP  RH WIND       PRES   REMARKS
LA CROSSE      CLOUDY    64  34  32 NW6       30.01F
SPARTA         PTSUNNY   62  33  33 CALM      30.03F
VIROQUA        CLOUDY    61  32  33 CALM      30.03F
BOSCOBEL       PTSUNNY   66  32  28 NE6       30.02F
PRAIRIE DU CHI PTSUNNY   63  34  33 W6        30.03F
PLATTEVILLE    PTSUNNY   60  36  41 N6        30.03F
$$

WIZ056-057-062-063-064-067-068-022300-
SOUTH CENTRAL WISCONSIN

CITY           SKY/WX    TMP DP  RH WIND       PRES   REMARKS
REEDSBURG      CLOUDY    61  33  35 CALM      30.01F
BARABOO/DELLS  PTSUNNY   64  28  25 NE5       30.02F
LONE ROCK      NOT AVBL
MINERAL POINT  PTSUNNY   61  30  31 CALM      30.03F
MADISON        PTSUNNY   62  33  33 NE7       30.01F
MIDDLETON      MOSUNNY   64  33  31 CALM      30.02F
WATERTOWN      PTSUNNY   61  39  44 E8        30.02F
MONROE         CLOUDY    59  36  41 N9        30.02F
JANESVILLE     CLOUDY    61  34  36 CALM      30.01F
$$

WIZ051-052-058>065-066-070>072-022300-
SOUTHEAST WISCONSIN

CITY           SKY/WX    TMP DP  RH WIND       PRES   REMARKS
MILWAUKEE      MOSUNNY   55  36  48 N12       30.03F
WAUKESHA       MOSUNNY   57  30  35 NE17      30.03F
MILWAUKEE/TIMM SUNNY     61  27  27 NE10      30.03F
RACINE         SUNNY     56  34  43 NE13      30.04F
BURLINGTON     SUNNY     60  31  33 E10       30.02F
KENOSHA        SUNNY     60  34  37 NE9       30.02F
FOND DU LAC    SUNNY     62  33  33 NE6       30.02F
SHEBOYGAN      SUNNY     59  34  39 NE9       30.03F
WEST BEND      MOSUNNY   59  32  36 NE10      30.02F
JUNEAU         PTSUNNY   60  36  39 NE6       30.03F
$$

LSZ147-162-022300-
LAKE SUPERIOR

STATION/POSITION TIME  TEMP    WIND        PRES    WAVE
                       AIR SEA DIR/SP/G            HT/PER
                 (UTC) (F)     (DEG/KT/KT) (MB)    (FT/S)
W MID LAKE BUOY  2050   39 37   20/  2/  2 1018.6F   0
DEVILS ISLAND    2100   54     130/  9/  9 1017.4F
SAXON HARBOR     2100   47      10/  2/  2 1017.3
$$

LMZ867-665-643>646-022300-
LAKE MICHIGAN

STATION/POSITION TIME  TEMP    WIND        PRES    WAVE
                       AIR SEA DIR/SP/G            HT/PER
                 (UTC) (F)     (DEG/KT/KT) (MB)    (FT/S)
CHAMBERS ISLAND  2100   59      70/  4/  7 1016.9F
N MID LAKE BUOY  2050   42 40  210/  6/  6 1017.5F   0
NORTHPORT PIER   2100   53     150/  8/ 10 1016.9F
KEWAUNEE LAKESHO 2100   49      90/  2/  4 1016.9F
SHEBOYGAN LAKESH 2100   48     360/  8/  9 1017.8F
PORT WASHINGTON  2100   54      40/  9/ 12 1017.9F
S MID LAKE BUOY  2050   42 41  340/  4/  6 1017.5F   1/ 3
KENOSHA   LAKESH 2100   47      80/  5/  8 1017.3F
$$

TC  - TEMPERATURE IN CELSIUS
VSB - VISIBILITY IN STATUTE MILES
WCI - WIND CHILL INDEX
HX  - HEAT INDEX




USA.gov is the U.S. government's official web portal to all federal, state and local government web resources and services.